Time,TemperatureF,DewpointF,PressureIn,WindDirection,WindDirectionDegrees,WindSpeedMPH,WindSpeedGustMPH,Humidity,HourlyPrecipIn,Conditions,Clouds,dailyrainin,SoftwareType,DateUTC
2013-04-23 00:02:00,48.0,47.0,29.95,ENE,64,6.0,9.0,98,0.00,,,0.00,,2013-04-23 07:02:00,
2013-04-23 00:11:00,48.0,47.0,29.95,ENE,64,6.0,9.0,98,0.00,,,0.00,,2013-04-23 07:11:00,
2013-04-23 00:21:00,48.0,47.0,29.96,ENE,70,4.0,9.0,98,0.00,,,0.00,,2013-04-23 07:21:00,
2013-04-23 00:32:00,48.0,47.0,29.95,East,92,7.0,10.0,98,0.00,,,0.00,,2013-04-23 07:32:00,
2013-04-23 00:42:00,48.0,47.0,29.95,East,92,7.0,10.0,98,0.00,,,0.00,,2013-04-23 07:42:00,
2013-04-23 00:52:00,48.0,47.0,29.95,ESE,105,4.0,9.0,98,0.00,,,0.00,,2013-04-23 07:52:00,
2013-04-23 01:01:00,48.0,47.0,29.95,ESE,113,8.0,11.0,98,0.00,,,0.00,,2013-04-23 08:01:00,
2013-04-23 01:11:00,48.0,47.0,29.95,ESE,113,8.0,11.0,98,0.00,,,0.00,,2013-04-23 08:11:00,
2013-04-23 01:21:00,47.0,46.0,29.95,East,99,7.0,11.0,98,0.00,,,0.00,,2013-04-23 08:21:00,
2013-04-23 01:31:00,47.0,46.0,29.94,ESE,113,8.0,11.0,98,0.00,,,0.00,,2013-04-23 08:31:00,
2013-04-23 01:42:00,47.0,46.0,29.94,ESE,113,8.0,11.0,98,0.00,,,0.00,,2013-04-23 08:42:00,
2013-04-23 01:52:00,47.0,46.0,29.95,ENE,73,5.0,8.0,98,0.00,,,0.00,,2013-04-23 08:52:00,
2013-04-23 02:01:00,47.0,46.0,29.94,East,86,6.0,10.0,98,0.00,,,0.00,,2013-04-23 09:01:00,
2013-04-23 02:11:00,47.0,46.0,29.94,East,86,6.0,10.0,98,0.00,,,0.00,,2013-04-23 09:11:00,
2013-04-23 02:21:00,47.0,46.0,29.94,ENE,70,4.0,9.0,98,0.00,,,0.00,,2013-04-23 09:21:00,
2013-04-23 02:32:00,47.0,46.0,29.94,East,88,6.0,9.0,98,0.00,,,0.00,,2013-04-23 09:32:00,
2013-04-23 02:42:00,47.0,46.0,29.94,East,88,6.0,9.0,98,0.00,,,0.00,,2013-04-23 09:42:00,
2013-04-23 02:52:00,47.0,46.0,29.93,East,94,9.0,11.0,98,0.00,,,0.00,,2013-04-23 09:52:00,
2013-04-23 03:02:00,47.0,46.0,29.93,ENE,76,9.0,13.0,98,0.00,,,0.00,,2013-04-23 10:02:00,
2013-04-23 03:12:00,47.0,46.0,29.93,ENE,76,9.0,13.0,98,0.00,,,0.00,,2013-04-23 10:12:00,
2013-04-23 03:22:00,47.0,47.0,29.93,ENE,72,6.0,11.0,99,0.00,,,0.00,,2013-04-23 10:22:00,
2013-04-23 03:32:00,47.0,47.0,29.93,ENE,69,5.0,9.0,99,0.00,,,0.00,,2013-04-23 10:32:00,
2013-04-23 03:42:00,47.0,47.0,29.93,ENE,69,5.0,9.0,99,0.00,,,0.00,,2013-04-23 10:42:00,
2013-04-23 03:52:00,47.0,47.0,29.93,East,83,4.0,9.0,99,0.00,,,0.00,,2013-04-23 10:52:00,
2013-04-23 04:02:00,47.0,47.0,29.93,East,80,5.0,8.0,99,0.00,,,0.00,,2013-04-23 11:02:00,
2013-04-23 04:12:00,47.0,47.0,29.93,East,80,5.0,8.0,99,0.00,,,0.00,,2013-04-23 11:12:00,
2013-04-23 04:21:00,47.0,47.0,29.93,ENE,74,6.0,10.0,99,0.00,,,0.00,,2013-04-23 11:21:00,
2013-04-23 04:32:00,47.0,47.0,29.93,ENE,59,9.0,12.0,99,0.00,,,0.00,,2013-04-23 11:32:00,
2013-04-23 04:42:00,47.0,47.0,29.93,ENE,59,9.0,12.0,99,0.00,,,0.00,,2013-04-23 11:42:00,
2013-04-23 04:52:00,47.0,47.0,29.93,ESE,109,6.0,12.0,99,0.00,,,0.00,,2013-04-23 11:52:00,
2013-04-23 05:02:00,47.0,47.0,29.93,East,91,8.0,11.0,99,0.00,,,0.00,,2013-04-23 12:02:00,
2013-04-23 05:12:00,47.0,47.0,29.93,East,91,8.0,11.0,99,0.00,,,0.00,,2013-04-23 12:12:00,
2013-04-23 05:22:00,47.0,46.0,29.93,East,89,9.0,13.0,98,0.00,,,0.00,,2013-04-23 12:22:00,
2013-04-23 05:32:00,47.0,46.0,29.93,ESE,111,10.0,13.0,98,0.00,,,0.00,,2013-04-23 12:32:00,
2013-04-23 05:41:00,47.0,46.0,29.93,ESE,111,10.0,13.0,98,0.00,,,0.00,,2013-04-23 12:41:00,
2013-04-23 05:51:00,47.0,46.0,29.94,ESE,104,7.0,13.0,98,0.00,,,0.00,,2013-04-23 12:51:00,
2013-04-23 06:01:00,47.0,46.0,29.94,East,92,9.0,14.0,98,0.00,,,0.00,,2013-04-23 13:01:00,
2013-04-23 06:11:00,47.0,46.0,29.94,East,92,9.0,14.0,98,0.00,,,0.00,,2013-04-23 13:11:00,
2013-04-23 06:21:00,47.0,46.0,29.94,East,97,10.0,14.0,97,0.00,,,0.00,,2013-04-23 13:21:00,
2013-04-23 06:32:00,47.0,46.0,29.95,ENE,63,9.0,18.0,97,0.00,,,0.00,,2013-04-23 13:32:00,
2013-04-23 06:41:00,47.0,46.0,29.95,ENE,63,9.0,18.0,97,0.00,,,0.00,,2013-04-23 13:41:00,
2013-04-23 06:52:00,47.0,46.0,29.96,ENE,67,9.0,13.0,96,0.00,,,0.00,,2013-04-23 13:52:00,
2013-04-23 07:01:00,47.0,46.0,29.97,ENE,77,5.0,8.0,96,0.00,,,0.00,,2013-04-23 14:01:00,
2013-04-23 07:11:00,47.0,46.0,29.97,ENE,77,5.0,8.0,96,0.00,,,0.00,,2013-04-23 14:11:00,
2013-04-23 07:22:00,48.0,47.0,29.98,ENE,70,4.0,9.0,96,0.00,,,0.00,,2013-04-23 14:22:00,
2013-04-23 07:31:00,48.0,47.0,29.98,ENE,75,2.0,8.0,95,0.00,,,0.00,,2013-04-23 14:31:00,
2013-04-23 07:42:00,48.0,47.0,29.98,ENE,75,2.0,8.0,95,0.00,,,0.00,,2013-04-23 14:42:00,
2013-04-23 07:52:00,48.0,47.0,29.98,ENE,64,3.0,5.0,95,0.00,,,0.00,,2013-04-23 14:52:00,
2013-04-23 08:01:00,48.0,47.0,29.98,ENE,64,3.0,5.0,95,0.00,,,0.00,,2013-04-23 15:01:00,
2013-04-23 08:12:00,48.0,47.0,29.98,East,88,3.0,6.0,95,0.00,,,0.00,,2013-04-23 15:12:00,
2013-04-23 08:21:00,49.0,48.0,29.99,ENE,69,2.0,5.0,95,0.00,,,0.00,,2013-04-23 15:21:00,
2013-04-23 08:32:00,49.0,47.0,29.99,East,99,3.0,7.0,94,0.00,,,0.00,,2013-04-23 15:32:00,
2013-04-23 08:42:00,49.0,47.0,29.99,East,99,3.0,7.0,94,0.00,,,0.00,,2013-04-23 15:42:00,
2013-04-23 08:52:00,49.0,47.0,29.99,SE,132,3.0,6.0,93,0.00,,,0.00,,2013-04-23 15:52:00,
2013-04-23 09:02:00,49.0,47.0,29.99,SE,146,1.0,6.0,93,0.00,,,0.00,,2013-04-23 16:02:00,
2013-04-23 09:12:00,49.0,47.0,29.99,SE,146,1.0,6.0,93,0.00,,,0.00,,2013-04-23 16:12:00,
2013-04-23 09:23:00,50.0,48.0,30.00,SE,128,4.0,10.0,92,0.00,,,0.00,,2013-04-23 16:23:00,
2013-04-23 09:33:00,51.0,49.0,30.00,East,94,2.0,8.0,92,0.00,,,0.00,,2013-04-23 16:33:00,
2013-04-23 09:42:00,51.0,49.0,30.00,East,94,2.0,8.0,92,0.00,,,0.00,,2013-04-23 16:42:00,
2013-04-23 09:52:00,52.0,49.0,30.00,SE,134,1.0,7.0,89,0.00,,,0.00,,2013-04-23 16:52:00,
2013-04-23 10:02:00,55.0,51.0,30.00,SSE,159,0.0,8.0,86,0.00,,,0.00,,2013-04-23 17:02:00,
2013-04-23 10:11:00,55.0,51.0,30.00,SSE,159,0.0,8.0,86,0.00,,,0.00,,2013-04-23 17:11:00,
2013-04-23 10:22:00,56.0,50.0,30.01,SSE,157,1.0,7.0,80,0.00,,,0.00,,2013-04-23 17:22:00,
2013-04-23 10:32:00,56.0,50.0,30.00,SE,132,7.0,10.0,79,0.00,,,0.00,,2013-04-23 17:32:00,
2013-04-23 10:42:00,56.0,50.0,30.00,SE,132,7.0,10.0,79,0.00,,,0.00,,2013-04-23 17:42:00,
2013-04-23 10:53:00,55.0,49.0,30.01,ESE,110,7.0,12.0,80,0.00,,,0.00,,2013-04-23 17:53:00,
2013-04-23 11:02:00,55.0,49.0,30.00,East,99,7.0,13.0,80,0.00,,,0.00,,2013-04-23 18:02:00,
2013-04-23 11:12:00,55.0,49.0,30.00,East,99,7.0,13.0,80,0.00,,,0.00,,2013-04-23 18:12:00,
2013-04-23 11:22:00,57.0,51.0,30.00,SE,132,6.0,11.0,79,0.00,,,0.00,,2013-04-23 18:22:00,
2013-04-23 11:32:00,56.0,49.0,30.00,SE,128,9.0,14.0,78,0.00,,,0.00,,2013-04-23 18:32:00,
2013-04-23 11:42:00,56.0,49.0,30.00,SE,128,9.0,14.0,78,0.00,,,0.00,,2013-04-23 18:42:00,
2013-04-23 11:52:00,56.0,49.0,30.00,ESE,116,10.0,14.0,78,0.00,,,0.00,,2013-04-23 18:52:00,
2013-04-23 12:02:00,56.0,49.0,30.00,SE,134,8.0,15.0,77,0.00,,,0.00,,2013-04-23 19:02:00,
2013-04-23 12:11:00,56.0,49.0,30.00,SE,134,8.0,15.0,77,0.00,,,0.00,,2013-04-23 19:11:00,
2013-04-23 12:21:00,58.0,49.0,29.99,SSE,159,9.0,14.0,73,0.00,,,0.00,,2013-04-23 19:21:00,
2013-04-23 12:32:00,58.0,49.0,29.98,SE,126,10.0,13.0,72,0.00,,,0.00,,2013-04-23 19:32:00,
2013-04-23 12:42:00,58.0,49.0,29.98,SE,126,10.0,13.0,72,0.00,,,0.00,,2013-04-23 19:42:00,
2013-04-23 12:52:00,57.0,50.0,29.98,SE,133,10.0,14.0,76,0.00,,,0.00,,2013-04-23 19:52:00,
2013-04-23 13:01:00,59.0,50.0,29.97,SSE,148,9.0,16.0,73,0.00,,,0.00,,2013-04-23 20:01:00,
2013-04-23 13:11:00,59.0,50.0,29.97,SSE,148,9.0,16.0,73,0.00,,,0.00,,2013-04-23 20:11:00,
2013-04-23 13:21:00,57.0,49.0,29.97,SE,140,10.0,16.0,74,0.00,,,0.00,,2013-04-23 20:21:00,
2013-04-23 13:31:00,57.0,50.0,29.97,SE,130,9.0,16.0,77,0.00,,,0.00,,2013-04-23 20:31:00,
2013-04-23 13:41:00,57.0,50.0,29.97,SE,130,9.0,16.0,77,0.00,,,0.00,,2013-04-23 20:41:00,
2013-04-23 13:51:00,57.0,50.0,29.96,ESE,123,9.0,16.0,76,0.00,,,0.00,,2013-04-23 20:51:00,
2013-04-23 14:01:00,57.0,50.0,29.96,SSE,155,10.0,16.0,76,0.00,,,0.00,,2013-04-23 21:01:00,
2013-04-23 14:11:00,57.0,50.0,29.96,SSE,155,10.0,16.0,76,0.00,,,0.00,,2013-04-23 21:11:00,
2013-04-23 14:21:00,57.0,50.0,29.96,SSE,148,8.0,17.0,77,0.00,,,0.00,,2013-04-23 21:21:00,
2013-04-23 14:32:00,57.0,51.0,29.96,SSE,153,9.0,15.0,79,0.00,,,0.00,,2013-04-23 21:32:00,
2013-04-23 14:43:00,57.0,51.0,29.96,SSE,153,9.0,15.0,79,0.00,,,0.00,,2013-04-23 21:43:00,
2013-04-23 14:52:00,57.0,51.0,29.95,SE,132,7.0,13.0,79,0.00,,,0.00,,2013-04-23 21:52:00,
2013-04-23 15:02:00,58.0,51.0,29.95,SE,142,7.0,12.0,77,0.00,,,0.00,,2013-04-23 22:02:00,
2013-04-23 15:12:00,58.0,51.0,29.95,SE,142,7.0,12.0,77,0.00,,,0.00,,2013-04-23 22:12:00,
2013-04-23 15:22:00,59.0,51.0,29.95,South,169,7.0,13.0,76,0.00,,,0.00,,2013-04-23 22:22:00,
2013-04-23 15:33:00,59.0,51.0,29.94,South,171,4.0,13.0,76,0.00,,,0.00,,2013-04-23 22:33:00,
2013-04-23 15:42:00,59.0,51.0,29.94,South,171,4.0,13.0,76,0.00,,,0.00,,2013-04-23 22:42:00,
2013-04-23 15:52:00,61.0,52.0,29.94,SE,127,2.0,11.0,73,0.00,,,0.00,,2013-04-23 22:52:00,
2013-04-23 16:02:00,64.0,53.0,29.93,WSW,241,1.0,4.0,67,0.00,,,0.00,,2013-04-23 23:02:00,
2013-04-23 16:12:00,64.0,53.0,29.93,WSW,241,1.0,4.0,67,0.00,,,0.00,,2013-04-23 23:12:00,
2013-04-23 16:22:00,61.0,52.0,29.93,NW,304,4.0,10.0,73,0.00,,,0.00,,2013-04-23 23:22:00,
2013-04-23 16:31:00,59.0,51.0,29.93,WNW,302,7.0,11.0,76,0.00,,,0.00,,2013-04-23 23:31:00,
2013-04-23 16:41:00,59.0,51.0,29.93,WNW,302,7.0,11.0,76,0.00,,,0.00,,2013-04-23 23:41:00,
2013-04-23 16:52:00,60.0,52.0,29.93,WNW,286,6.0,13.0,74,0.00,,,0.00,,2013-04-23 23:52:00,
2013-04-23 17:01:00,60.0,52.0,29.93,WSW,243,7.0,13.0,74,0.00,,,0.00,,2013-04-24 00:01:00,
2013-04-23 17:11:00,60.0,52.0,29.93,WSW,243,7.0,13.0,74,0.00,,,0.00,,2013-04-24 00:11:00,
2013-04-23 17:21:00,60.0,51.0,29.92,West,273,8.0,12.0,73,0.00,,,0.00,,2013-04-24 00:21:00,
2013-04-23 17:32:00,58.0,51.0,29.92,WNW,303,8.0,12.0,77,0.00,,,0.00,,2013-04-24 00:32:00,
2013-04-23 17:41:00,58.0,51.0,29.92,WNW,303,8.0,12.0,77,0.00,,,0.00,,2013-04-24 00:41:00,
2013-04-23 17:51:00,58.0,51.0,29.93,WNW,296,8.0,14.0,78,0.00,,,0.00,,2013-04-24 00:51:00,
2013-04-23 18:01:00,56.0,50.0,29.93,WNW,302,9.0,13.0,80,0.00,,,0.00,,2013-04-24 01:01:00,
2013-04-23 18:11:00,56.0,50.0,29.93,WNW,302,9.0,13.0,80,0.00,,,0.00,,2013-04-24 01:11:00,
2013-04-23 18:21:00,55.0,50.0,29.92,WNW,290,8.0,13.0,83,0.00,,,0.00,,2013-04-24 01:21:00,
2013-04-23 18:31:00,55.0,50.0,29.92,West,275,10.0,13.0,82,0.00,,,0.00,,2013-04-24 01:31:00,
2013-04-23 18:42:00,55.0,50.0,29.92,West,275,10.0,13.0,82,0.00,,,0.00,,2013-04-24 01:42:00,
2013-04-23 18:52:00,56.0,51.0,29.92,West,281,10.0,14.0,83,0.00,,,0.00,,2013-04-24 01:52:00,
2013-04-23 19:02:00,54.0,50.0,29.92,WNW,297,10.0,18.0,85,0.00,,,0.00,,2013-04-24 02:02:00,
2013-04-23 19:12:00,54.0,50.0,29.92,WNW,297,10.0,18.0,85,0.00,,,0.00,,2013-04-24 02:12:00,
2013-04-23 19:23:00,53.0,49.0,29.92,WNW,285,10.0,15.0,87,0.00,,,0.00,,2013-04-24 02:23:00,
2013-04-23 19:34:00,53.0,50.0,29.92,West,273,10.0,12.0,88,0.00,,,0.00,,2013-04-24 02:34:00,
2013-04-23 19:53:00,52.0,49.0,29.92,West,275,6.0,10.0,89,0.00,,,0.00,,2013-04-24 02:53:00,
2013-04-23 20:03:00,52.0,49.0,29.92,West,273,8.0,11.0,90,0.00,,,0.00,,2013-04-24 03:03:00,
2013-04-23 20:12:00,52.0,49.0,29.92,West,273,8.0,11.0,90,0.00,,,0.00,,2013-04-24 03:12:00,
2013-04-23 20:23:00,52.0,49.0,29.92,West,275,8.0,12.0,90,0.00,,,0.00,,2013-04-24 03:23:00,
2013-04-23 20:35:00,52.0,49.0,29.92,West,267,6.0,9.0,88,0.00,,,0.00,,2013-04-24 03:35:00,
2013-04-23 20:53:00,53.0,50.0,29.93,West,267,0.0,4.0,88,0.00,,,0.00,,2013-04-24 03:53:00,
2013-04-23 21:02:00,52.0,49.0,29.93,West,267,1.0,5.0,90,0.00,,,0.00,,2013-04-24 04:02:00,
2013-04-23 21:12:00,52.0,49.0,29.93,West,267,1.0,5.0,90,0.00,,,0.00,,2013-04-24 04:12:00,
2013-04-23 21:22:00,52.0,48.0,29.94,WSW,248,4.0,6.0,85,0.00,,,0.00,,2013-04-24 04:22:00,
2013-04-23 21:33:00,53.0,50.0,29.94,WSW,258,0.0,4.0,88,0.00,,,0.00,,2013-04-24 04:33:00,
2013-04-23 21:43:00,53.0,50.0,29.94,WSW,258,0.0,4.0,88,0.00,,,0.00,,2013-04-24 04:43:00,
2013-04-23 21:52:00,55.0,49.0,29.95,NW,307,0.0,4.0,79,0.00,,,0.00,,2013-04-24 04:52:00,
2013-04-23 22:02:00,53.0,49.0,29.95,WSW,256,0.0,0.0,87,0.00,,,0.00,,2013-04-24 05:02:00,
2013-04-23 22:12:00,53.0,49.0,29.95,WSW,256,0.0,0.0,87,0.00,,,0.00,,2013-04-24 05:12:00,
2013-04-23 22:21:00,56.0,50.0,29.95,East,95,3.0,5.0,81,0.00,,,0.00,,2013-04-24 05:21:00,
2013-04-23 22:32:00,55.0,49.0,29.95,East,88,8.0,9.0,81,0.00,,,0.00,,2013-04-24 05:32:00,
2013-04-23 22:42:00,55.0,49.0,29.95,East,88,8.0,9.0,81,0.00,,,0.00,,2013-04-24 05:42:00,
2013-04-23 22:51:00,55.0,50.0,29.95,East,90,5.0,7.0,82,0.00,,,0.00,,2013-04-24 05:51:00,
2013-04-23 23:02:00,52.0,48.0,29.95,ESE,109,8.0,10.0,85,0.00,,,0.00,,2013-04-24 06:02:00,
2013-04-23 23:11:00,52.0,48.0,29.95,ESE,109,8.0,10.0,85,0.00,,,0.00,,2013-04-24 06:11:00,
2013-04-23 23:21:00,50.0,47.0,29.96,SE,138,10.0,12.0,91,0.00,,,0.00,,2013-04-24 06:21:00,
2013-04-23 23:32:00,49.0,48.0,29.96,SE,128,11.0,13.0,95,0.00,,,0.00,,2013-04-24 06:32:00,
2013-04-23 23:41:00,49.0,48.0,29.96,SE,128,11.0,13.0,95,0.00,,,0.00,,2013-04-24 06:41:00,
2013-04-23 23:51:00,49.0,48.0,29.96,ESE,112,9.0,12.0,96,0.00,,,0.00,,2013-04-24 06:51:00,